Location: Asis
(14.1331°N, 120.9056°E)
Time: 13:27:44
(UTC+00:00)

Cosmos 968 Rocket - Pass Details

Date: 15 January 2026
Orbit: 737 x 764 km, 74.0° (Epoch: 14 February)

Event Time Altitude Azimuth Distance (km) Brightness Sun altitude
Rises 10:06:32 0° 1° (N) 3,171 6.5 -5.2°
Reaches altitude 10° 10:09:06 10° 11° (N) 2,244 5.6 -5.8°
Maximum altitude 10:13:38 33° 75° (ENE) 1,229 4.1 -6.8°
Drops below altitude 10° 10:18:09 10° 138° (SE) 2,235 5.7 -7.9°
Sets 10:20:42 0° 148° (SSE) 3,155 6.6 -8.4°
